Location: Beau Repaire
(50.6144°N, 4.0551°E)
Time: 04:55:28
(UTC+00:00)

Cosmos 2333 Rocket - Pass Details

Date: 15 May 2026
Orbit: 840 x 862 km, 70.8° (Epoch: 6 June)

Event Time Altitude Azimuth Distance (km) Brightness Sun altitude
Rises 21:34:38 0° 324° (NW) 3,424 7.3 -15.1°
Reaches altitude 10° 21:37:16 10° 316° (NW) 2,487 5.9 -15.3°
Maximum altitude 21:42:22 35° 253° (WSW) 1,352 3.4 -15.7°
Enters shadow 21:46:30 15° 194° (SSW) 2,163 3.9 -16.0°
